{"data":{"norad_id":62365,"epoch":"2026-09-22T21:55:29.820576Z","epoch_age_seconds":103386,"freshness":"FRESH","line1":"1 62365U 24245A   26265.91353959 -.00000047  00000+0  56111-4 0  9993","line2":"2 62365  44.9827 247.1794 0005769 117.2214 242.9207 13.99233508 90049","mean_motion":13.99233508,"eccentricity":0.0005769,"inclination_deg":44.9827,"raan_deg":247.1794,"arg_perigee_deg":117.2214,"mean_anomaly_deg":242.9207,"bstar":5.6111e-5,"rev_number":9004,"period_min":102.91348740342,"perigee_km":892.25387020781,"apogee_km":900.64728935736,"semimajor_km":7274.5875797826,"source":"CELESTRAK","updated_at":"2026-09-23T09:00:21.388719Z"}}